[Date Prev][Date Next][Thread Prev][Thread Next][Date Index][Thread Index]

[jamsat-news:1269] jas2info #187



========================   最新情報   ==============================

        Last updated :Sun.14-May.-2000  14:50 (JST) #187

====================================================================
   
  1)アマチュア通信衛星情報 FOシリーズの軌道要素、テレメトリ、
   QSOの状況等をまとめてみました.
   
   FO−29の5月14日(日)のテレメトリはJARLのホームページの
  運用変更予定のとうり13:07(JST)のパスではアナログ系運用になって
  おりました.CW信号でテレメトリを13:07〜13:18(JST)に
  受信できました.受信時に以前は小さかった「風を切るような音」が信号音に
  混じりかなり大きく聞こえました、これは一時的なものかどうか次回に
  確認します。
  現在まで、当局で取得したデータの1部を掲載しておきます.

  AS18470C 14May2000
  13:07-13:19(JST)
  Freq. 435.802-.789MHz

 HI HI AE C7 88 55 19 3D FF 0D 00 2E 75 98 79 60 92 91 9F 7B BC BC BD BC B9 
 HI HI AE C7 88 55 1E 3D FF 0D 00 2E 7C 7D 8C 41 94 91 B0 7F BC BB BD BC B9 
 HI HI AE C7 88 55 03 3D FF 1A 00 2E 64 A0 83 60 94 91 B0    BC BB BD BC B9 
 HI HI AE c7 88 55 08 3D FF 0D 00 2E 8A 7A 8F 60 93 90 B0 6A BC BB BD BC B9 
 HI HI AE C7 87 55 0A 3D FF 0D 00 2E          60 93 91 B0    BC BB BD BC B9 
 HI HI AE 07 88 55 12 3D FF 0D 00 2E  7 7F 8F 60 93 91 B0 80 BC BB BD BC B9 
 HI HI AE C7 88 55 17 3D FF 0D 00 2E 3B 88 88 5F 92 91 A7  5 BC BB BD BC B9 
 HI HI AE C7 88 55 1C 3D FF 0D 00 2E A0 4A 89 46 96 92 B1    BB BB BC BC B9 
 HI HI AE C7 88 55 01 3D FF 0D 00 2E 34 6F 8C 60 92 91 B0 5A BB BB BC BB B9 
 HI HI AE C7 88 55 07 3D FF 0D 00 2E 9F 91 83 60 92 90 9F 94 BB BB BC BB B9 
 HI HI AE C7 88 55 0C 3D FF 0D 00 2E 3A 53 89 60 92 92 A1 68 BB BB BC BB B9 
 HI HI AE C7 88 55 11 3D FF 0D 00 2E 8D 8D 7E 60 94 92 A1 86 BB BB BC BB BA 
 HI HI AE C7 88 55 16 3D FF 0D 00 2E 49 47 81 60 94 92 B0 C3 BB BA BC BB BA
 HI HI AE C7 88 55 1B 3D FF 0D 00 2E 85 7A 7E 60 94 92 A1 8E BB BA BC BB BA 
 HI HI AE C7 88 55 00 3D FF 1D 00 2E 56 43 84 60 93 92 AE 9  BB BA BC BB BA 
 HI HI AE C7 88 55 05 3D FF 0D 00 2E 82 61 84 60 93 91 B0 6D BB BA BB BA BA 
 HI HI AE C7 88 55 0A 3D FF 0D 00 2E 65 47 88 60 93 91 B0 7F BB BA BB BB BA 

 
 AS18469C   14may2000
 11:23-11:36(JST)
 345.788-.786MHz

 HI HI AE C7 88 55 0E 3D FF 0D 00 2E 71 5B       95 92 B0 7B BC B8 BB BC B9 
 HI HI AE 07 88 55 13 3D 0A 0D 00 2E 41 9B 8A 4A 95 92 B9 O3 BC B8 BB BC B9 
 HI HI AE 07 88 55 18 3D FF 0D 00 2E 88 2F 90 3F 94 92 B0 53 BC B8 BA BC B9 
 HI HI AE 07 88 55 1E 3D FF 0D 00 2E 2D 87 83 60 95 93 B0 79 BC B8 BA BC B9 
 HI HI AE 07 88 55 03 3D 0A 0D 00 2E 8D 42 7E 60 92 91 A0 90 BB B8 BA BC B9 
 HI HI AE C7 88 55 08 3D 05 0D 00 2E 24 62 8D 60 92 90 B0 76 BB B7 BA BC B9 
 HI HI AE C7 88 55 0D 3D FF 0D 00 2E 88 62 7F 61 94 91 B0 65 BB B8 BA BC BA 
 HI HI AE C7 88 55 12 3D FF 0D 00 2E 27 48 8B 60 91 91 A0 77 BB B7 BA BC B9 
 HI HI AE C7 88 55 17 3D FF 0D 00 2E 2A 72 73 60 91 91 B0 75 BB B7 BA BC B9

 AS18294C1   1May2000
 12:42-12:54(JST) 
 Freq.435.804 - .787MHz

 HI HI AE 07 88 55 17 3D FF 0D 00 2E 5A 37 76 4D 94 92 9F 7A BB B8 BA BB B6 
 HI HI AE 07 88 55 1C 3D FF 0D 00 2E 4D 49 6B 50 93 91 9F 90 BB B8 BA BB B6
 HI HI AE C7 88 55 01 3D FF 0D 00 2E 79 3A 7A 60 92 90 9F 6E BB B7 BA BB B6 
 HI HI AE 07 88 55 06 3D FF 0D 00 2E 58 6C 74 60 93 90 9E 57 BB B7 BA BB B6 
 HI HI AE C7 88 55 0B 3D FF 0D 00 2E 6E 3F 90 3F 94 91 B0 85 BB B7 B9 BB B6 
 HI HI AE C7 88 55 11 3D FF 0D 00 2E 69 80 95 60 94 91 A0 7C BB B7 B9 BB B6 
 HI HI AE C7 88 55 15 3D FF 0D 00 2E 63 42 9C 60 94 91 A0 B PBB B7 B9 BB B6 
 HI HI AE 07 88 55 1B 3D FF 0D O0 2E 77 48    48 94 91 B1 80 BB B7 B9 BA B6 
 HI HI AE C7 88 55 00 3D FF 0D 00 2E 57 47 92 3B 96 92 B0 71 BB B7 B9 SA B6 
 HI HI AE C7 88 55 05 3D FF 0D 00 2E 85 AO 70 4F 95 92 B0 74 BA B7 B9 BA B6 
 HI HI AE C7 88 55 0A 3D FF 1E 00 2E 41 50 89 60 92 90 BF 95 BA B7 B9 BA B6 
 HI HI AE C7 88 55 0F 3D FF 0D 00 2E 93 50 66 53 93 91 9E 91 BA B6 B8 BA B6 
 HI HI AE C7 88 55 14 3D FF 0D 00 2E 33 5E 8E 60 92 90 9F 78 BA BD B8 BA B6 
 HI HI AE C7 88 55 19 3D FF 0D 01 2E 9B AD 6B 52 93 91 9E 89 BA B6 B8 BA B6 
 HI HI AE C7 88 55 05 3D 0A 0D 00 2E 5E     7 61 94 91 B0 6A BA B6 B8 BA B6 
 HI HI AE C7 88 55 03 3D FF 0D 00 2E 97 A1 74 60 93 90 B0 63 BA B6 B8 B9 B6
 HI HI AE C7 88 55 08 3D FF 0D 00 2E 6A 85 87 41 96 92 B0 B2 BA B6 B8 BA B6 


 ------------------------ FO-29の軌道要素 ------------------------------        
 
  ■ 軌道要素1:「jamsat−keps:538」より(991?)              
            SB KEPS @ AMSAT  $ORB00133.N
            2Line Orbital Elements 00133.AMSAT

 HR AMSAT ORBITAL ELEMENTS FOR AMATEUR SATELLITES IN NASA FORMAT
 >FROM WA5QGD FORT WORTH,TX May 12, 2000
 SEND SUBSCRIBE/UNSUBSCRIBE TO majordomo@amsat.org ONLY
 BID: ORB00133.N

  DECODE 2-LINE ELSETS WITH THE FOLLOWING KEY:
  1 AAAAAU 00  0  0 BBBBB.BBBBBBBB  .CCCCCCCC  00000-0  00000-0 0  DDDZ
  2 AAAAA EEE.EEEE FFF.FFFF GGGGGGG HHH.HHHH III.IIII JJ.JJJJJJJJKKKKKZ
  KEY: A-CATALOGNUM B-EPOCHTIME C-DECAY D-ELSETNUM E-INCLINATION F-RAAN
  G-ECCENTRICITY H-ARGPERIGEE I-MNANOM J-MNMOTION K-ORBITNUM Z-CHECKSUM

  TO ALL RADIO AMATEURS BT

 FO-29
 1 24278U 96046B   00132.13689121  .00000077  00000-0  11766-3 0 03548
 2 24278 098.5888 044.8542 0351313 323.0295 034.7087 13.52721075184283

 ■ 軌道要素2:「jamsat−keps:539」より(992?)                         
         SB KEPS @ AMSAT  $ORB00133.O
             Orbital Elements  00133.OSCAR

 HR AMSAT ORBITAL ELEMENTS FOR OSCAR SATELLITES
 FROM WA5QGD FORT WORTH,TX May 12, 2000
 SEND SUBSCRIBE/UNSUBSCRIBE TO majordomo@amsat.org ONLY
 BID: ORB00133.O
 TO ALL RADIO AMATEURS BT

  Satellite: FO-29
 Catalog number: 24278
 Epoch time:      00132.13689121
 Element set:    0354
 Inclination:      098.5888 deg
 RA of node:       044.8542 deg
 Eccentricity:    0.0351313
 Arg of perigee:   323.0295 deg
 Mean anomaly:     034.7087 deg
 Mean motion:   13.52721075 rev/day
 Decay rate:        7.7e-07 rev/day^2
 Epoch rev:           18428
 Checksum:              306
-------------------  FO-29(JAS-2)のテレメトリに関する情報  ----------------------
 
 2)5月14日(日)のテレメトリの最後の行を換算した結果です.

  AS18470C 14May2000
    13:07-13:19(JST)
    Freq. 435.802-.789MHz
 
    HI HI AE C7 88 55 0A 3D FF 0D 00 2E 65 47 88 60 93 91 B0 7F BB BA BB BB BA 
  
 テレメトリ  	内   容	    	換算値	単 位 

 3C	磁気センサーZ軸=	49509.8	[nT]
 3D	磁気センサX軸	=	34803.9	[nT]
 4A	太陽電池発生電流=   	 1333.3	[mA]
 4B	B充放電電流	=	 -118.4	[mA]
 4C	B端子電圧	=	   15.8	[V]
 4D	B中間端子電圧	=	    7.0	[V]
 5A	バス電圧 	=	   17.3	[V]
 5B	JTA送信電力	=	  727.4	[mW]
 5C 	構体温度1	=	    9.3	[℃]
 5D	構体温度2	=	    9.6	[℃]
 6A	構体温度3	=	    9.3	[℃]
 6B	構体温度4	=	    9.3	[℃]
 6C	Bセル温度	=	    9.6	[℃]
 
 * OSはWindows 2000,Office 2000 にて計算処理.
 
 ==================================================================================

  4)JARL のホームページに運用予定が記載されていましたのでご紹介します.
       ( http://www.jarl.or.jp/Japanese/3_Fuji/new/uy.htm )

        ■ ふじ3号/FOー29/JAS-2 ■  
   
     *** 運用予定について ***   

 04月21日 〜 05月07日 アナログ系運用 
 05月08日 〜 06月08日 アナログ系運用

 ※5月8日(月)から14日(日)迄,「デジタル系1200bpsメールボックス運用」でしたが
  地上混信が余りにも酷いため,デジタル系に切り換えることが出来ませんので,予定を変更して
  アナログ系運用と致します。

 *なお,運用予定は都合により変更することがありますのでご了承願います。

 照会先 : lab@jarl.or.jp

 最新の情報はテレホンサービス(03−3942−1000)をお聞きください。  
 以後の運用につきましては5月下旬にお知らせいたします。

-----------------------    FO−20(JAS-1b)道要素   -------------------------
  5)
  ■ 軌道要素1 :出典はFO-29「ふじ3号」に同じ.
  
   FO-20
 1 20480U 90013C   00131.88116766  .00000006  00000-0  79531-4 0 02522
 2 20480 099.0477 269.2801 0540913 139.6872 224.5664 12.83272695480497

  ■ 軌道要素2 :出典はFO−29「ふじ3号」に同じ.
               
   Satellite: FO-20
 Catalog number: 20480
 Epoch time:      00131.88116766
 Element set:    0252
 Inclination:      099.0477 deg
 RA of node:       269.2801 deg
 Eccentricity:    0.0540913
 Arg of perigee:   139.6872 deg
 Mean anomaly:     224.5664 deg
 Mean motion:   12.83272695 rev/day
 Decay rate:        6.0e-08 rev/day^2
 Epoch rev:           48049
 Checksum:              312

 --------------------------------------------------------------------------------
 6)[jamsat‐bb:5285]FO−29 status May 9 に脇田 美根夫氏がテレメトリの
   分析結果を投稿されてましたので転載させて頂きました.

  ̄卆FO-29は、予告では 本日(5月9日)はデジタルJDモードでしたが、実際は
  アナログJAモードになっていることを、CWテレメトリを解析して確認しまし
  ました。

  なお テレメトリの受信に、Windows95対応フリー通信ソフトの「exterm.exe」
  を使用し、さらに受信したデータを解析するために、自作の「fo29cwt2.exe」
  を使用しました。 テレメトリのフォーマットの詳細については、下記URLを
  ご参照下さい。
               http://www.ne.jp/asahi/hamradio/je9pel/fo29tlme.htm

[プログラム]
   Exterm.exe       http://village.infoweb.ne.jp/~ja3thl/
   Fo29cwt2.exe     http://www.ne.jp/asahi/hamradio/je9pel/


[受信時刻 10:53JST 9-May 2000]
   Raw data : HI HI AE C7 88 55 02 3D 0A 0D 00 2E 57
                    B1 66 55 93 91 9F 6E B9 B9 BA B8 B7
[解析]
> メインリレー   ON    :  DCM      ON
> SRAM     ON    :  パケット     1200bps
> JTA      ON    :  JTD      OFF
> 地磁気センサー  ON    :  
> 太陽センサー   ON    :  UVC      ON
> UVCレベル   2     :  PCUモード   AUTO
> PCUレベル   1     :  バッテリモード  TRIC
> バッテリロジック TRIC  :  
> デジトーカモード OFF   :  UVC ACT/PAS  PAS
> CPU RUN/RESET RUN   :  
> スピン周期          4272.0 [msec]
> 太陽角(サンアングル)       68.5 [deg]
> 地磁気センサーZ軸     42647.1 [nT]
> 地磁気センサーX軸     86764.7 [nT]
> 太陽電池発生電流       1000.0 [mA]
> バッテリ充放電電流      -334.0 [mA]
> バッテリ端子電圧         15.8 [V]
> バッテリ中間端子電圧        7.0 [V]
> バス電圧             15.6 [V]
> アナログ送信電力        616.9 [mW]
> 構体温度1            10.0 [C]
> 構体温度2            10.0 [C]
> 構体温度3             9.6 [C]
> 構体温度4            10.4 [C]
> バッテリセル温度         10.8 [C]

 同じく脇田 美根夫氏が[jamsat-bb:5288]にFO‐29 mode JAとして
  投稿されていましたので転載させて頂きます.

  アメリカの ARRL Field Day に関連して、来月の6月の
 週末(特に第4週目の週末)に、衛星FO-29はJAモード
 にならないか、という数通のリクエストが来ています。

 ----------------------------------------------
 Name : JE9PEL/1 脇田
 Mail : je9pel@jamsat.or.jp
 URL  : http://www.ne.jp/asahi/hamradio/je9pel/
 QTH  : Yokohama, Japan
 Date : May 10, 2000
 ----------------------------------------------
--------------------------------------------------------------------------------

         ■ ふじ2号/FO−20/JAS-1b ■      
            
          「ふじ2号」 現況                                                                                  
             
   JAS-1b(ふじ2号)のCWテレメトリ信号に,1997年10月12日12時(JST)の
 日本上空通過時,3桁の数字が繰り返されるはずが3個の長音の繰り返しとなっているという
 異常が発見されました。この不具合は次の通過時からは回復していましたが13日15時20分の
 通過時に再び観測されました。現在はA0の送信が続いています。衛星のアナログ系中継モード
 動作は異常が無く,正常時のテレメトリ内容からは衛星の動作に異常は認められません。従って,
 直ちに衛星のミッションに影響することは無いと予想されますので,当面はアナログ系中継
 モードを継続します。衛星は既に打ち上げてから7年8ヶ月を経ておりますので,今後は監視を
 強化する予定です。アマチュア各位のレポートをお待ちします。
 -------------------------------------------------------------------------------- 
  1997年10月14日 00時35分 確認のテレメトリ音 151 KB (A0) 
  1997年10月14日 11時10分 確認のテレメトリ音 216 KB (異常キーイング) 

  以上 JARLのホ−ムページの http://www.jarl.or.jp/Japanese/3_Fuji/new/fuji.htm
                                           
   =============   JAS-2 (ふじ3号)と現在までの情報   ===========
  
  A.電話によるふじ3号の運用情報
      社団法人日本アマチュア連盟によるサービス
           TEL .   03− 3942 − 1000
  B.アマチュア無線FAXサービス
      JARLによるふじ3号の軌道情報(オービットカレンダー)
         FAX No.  03− 3233 −0055
  C.WWWブラウザで情報を簡単に見れる人のためにJAS−2
     ふじ3号の衛星としての運用されるまでの名前)の概要、打ち上げ
     までの状況、運用中における状況を説明したホームページを紹介し
     ておきます.
     社団法人日本アマチュア無線連盟(JARL)のホームページ

          http://www.jarl.or.jp/Japanese/3_Fuji/jasmenu.htm
 
     宇宙開発事業団(NASDA)ホームページ 
          http://www.nasda.go.jp/
         打上げ衛星 :地球観測プラットフォーム技術衛星(ADEOS) 
                       アマチュア衛星3号(JAS-2)
          http://yyy.tksc.nasda.go.jp/Home/Press/Press-j/jas-2_j.html        

  D.JAMSATによる軌道情報の活用
        JAMSATのホームページまたはjamsat−kepsの軌道要素より
      衛星の軌道情報を得る.
     JAMSATホームページ
               URL    http://www.jamsat.or.jp
       上記ホームページでは各地で行われるアマチュア通信衛星に関する
      ミューティングのお知らせや世界のアマチュア衛星に関する情報が
      満載されています.
 ========================================================================  
     JAMSATのメンバーのご協力によりJH6MME(高山 秀造)が
    執筆・編集を担当しております.ご指摘の意見、疑問やこのようにしたら
    というアイデアがありましたら小さなことでもかまいませんので気軽に下
    記アドレスまでご連絡ください.jamsat−newsからjas2
    infoへの転載をJH4PHW局坂井さんに担当して頂いております.  
                  E-mail : jh6mme@jamsat.or.jp : jh4phw@jamsat.or.jp
 ===============================   END  ===============================